Weatherford, OK

9:55 PM CDT on August 24, 2016 (GMT -0500)
Weatherford

Weather History for KOJA - May, 2013

Change the Weather History Date:

Wednesday, May 8, 2013

  Actual Average (KJWG) Record (KJWG)
Temperature  
Mean Temperature 72 °F -  
Max Temperature 84 °F 77 °F 98 °F (2011)
Min Temperature 59 °F 52 °F 35 °F (1984)
Cooling Degree Days 6    
Growing Degree Days 22 (Base 50)    
Moisture  
Dew Point 56 °F    
Average Humidity 63    
Maximum Humidity 94    
Minimum Humidity 45    
Precipitation  
Precipitation 0.00 in - - ()
Sea Level Pressure  
Sea Level Pressure 29.87 in    
Wind  
Wind Speed 13 mph (SSE)    
Max Wind Speed 26 mph    
Max Gust Speed 33 mph    
Visibility 10 miles    
Events Thunderstorm    
Averages and records for this station are not official NWS values.
T = Trace of Precipitation, MM = Missing Value Source: NWS Daily Summary

Daily Weather History Graph

Daily Weather History Graph

Search for Another Location

Airport or City:

Trip Planner

Search our weather history database for the weather conditions in past years. The results will help you decide how hot, cold, wet, or windy it might be!

Date:

Astronomy

May. 08, 2013 Rise Set
Actual Time 6:35 AM CDT 8:27 PM CDT
Civil Twilight 6:07 AM CDT 8:55 PM CDT
Nautical Twilight 5:34 AM CDT 9:28 PM CDT
Astronomical Twilight 4:58 AM CDT 10:04 PM CDT
Moon 5:41 AM CDT (5/8) 7:28 PM CDT (5/8)
Length of Visible Light 14h 47m
Length of Day
13h 51m
Waning Crescent, 2% of the Moon is Illuminated
May 8
Waning Crescent
May 9
New
May 17
First Quarter
May 24
Full
May 31
Last Quarter

Hourly Weather History & Observations

Time (CDT) Temp. Heat Index Dew Point Humidity Pressure Visibility Wind Dir Wind Speed Gust Speed Precip Events Conditions
12:15 AM 66.2 °F - 50.0 °F 56% 29.92 in 10.0 mi SSE 13.8 mph 20.7 mph N/A   Clear
12:35 AM 66.2 °F - 50.0 °F 56% 29.92 in 10.0 mi SSE 15.0 mph 21.9 mph N/A   Clear
12:55 AM 66.2 °F - 50.0 °F 56% 29.92 in 10.0 mi SSE 16.1 mph 23.0 mph N/A   Clear
1:15 AM 64.4 °F - 50.0 °F 59% 29.91 in 10.0 mi SSE 16.1 mph 24.2 mph N/A   Clear
1:35 AM 64.4 °F - 50.0 °F 59% 29.90 in 10.0 mi SSE 18.4 mph 26.5 mph N/A   Clear
1:55 AM 64.4 °F - 50.0 °F 59% 29.90 in 10.0 mi South 17.3 mph 25.3 mph N/A   Clear
2:15 AM 64.4 °F - 50.0 °F 59% 29.89 in 10.0 mi South 17.3 mph 24.2 mph N/A   Clear
2:35 AM 64.4 °F - 51.8 °F 64% 29.88 in 10.0 mi South 18.4 mph 28.8 mph N/A   Clear
2:55 AM 64.4 °F - 51.8 °F 64% 29.88 in 10.0 mi South 20.7 mph 26.5 mph N/A   Clear
3:15 AM 64.4 °F - 51.8 °F 64% 29.88 in 10.0 mi South 19.6 mph 24.2 mph N/A   Clear
3:35 AM 64.4 °F - 51.8 °F 64% 29.87 in 10.0 mi South 16.1 mph 23.0 mph N/A   Clear
3:55 AM 62.6 °F - 51.8 °F 68% 29.87 in 10.0 mi South 16.1 mph 23.0 mph N/A   Clear
4:15 AM 62.6 °F - 51.8 °F 68% 29.87 in 10.0 mi South 13.8 mph 23.0 mph N/A   Clear
4:35 AM 62.6 °F - 51.8 °F 68% 29.86 in 10.0 mi South 13.8 mph 21.9 mph N/A   Clear
4:55 AM 62.6 °F - 51.8 °F 68% 29.86 in 10.0 mi South 12.7 mph 17.3 mph N/A   Clear
5:15 AM 60.8 °F - 51.8 °F 72% 29.86 in 10.0 mi South 11.5 mph 18.4 mph N/A   Clear
5:55 AM 60.8 °F - 51.8 °F 72% 29.87 in 10.0 mi South 8.1 mph - N/A   Clear
6:15 AM 60.8 °F - 51.8 °F 72% 29.88 in 10.0 mi SSE 8.1 mph - N/A   Clear
6:35 AM 59.0 °F - 51.8 °F 77% 29.88 in 10.0 mi SSE 5.8 mph - N/A   Clear
6:55 AM 60.8 °F - 51.8 °F 72% 29.89 in 10.0 mi South 4.6 mph - N/A   Clear
7:15 AM 59.0 °F - 51.8 °F 77% 29.89 in 10.0 mi SSE 3.5 mph - N/A   Clear
7:35 AM 60.8 °F - 51.8 °F 72% 29.89 in 10.0 mi SSE 6.9 mph - N/A   Clear
7:55 AM 60.8 °F - 51.8 °F 72% 29.90 in 10.0 mi SSE 6.9 mph - N/A   Clear
8:15 AM 62.6 °F - 51.8 °F 68% 29.90 in 10.0 mi South 6.9 mph - N/A   Clear
8:35 AM 66.2 °F - 51.8 °F 60% 29.90 in 10.0 mi South 10.4 mph - N/A   Clear
8:55 AM 68.0 °F - 51.8 °F 56% 29.90 in 10.0 mi South 11.5 mph 16.1 mph N/A   Clear
9:15 AM 69.8 °F - 51.8 °F 53% 29.90 in 10.0 mi South 11.5 mph 17.3 mph N/A   Clear
9:35 AM 69.8 °F - 53.6 °F 56% 29.91 in 10.0 mi South 12.7 mph 16.1 mph N/A   Clear
9:55 AM 71.6 °F - 53.6 °F 53% 29.93 in 10.0 mi Calm Calm - N/A   Clear
10:15 AM 71.6 °F - 53.6 °F 53% 29.94 in 10.0 mi SSE 4.6 mph - N/A   Mostly Cloudy
10:35 AM 71.6 °F - 55.4 °F 57% 29.94 in 10.0 mi SE 4.6 mph - N/A   Overcast
10:55 AM 73.4 °F - 55.4 °F 53% 29.94 in 10.0 mi South 8.1 mph - N/A   Overcast
11:15 AM 73.4 °F - 57.2 °F 57% 29.94 in 10.0 mi South 8.1 mph - N/A   Overcast
11:35 AM 73.4 °F - 59.0 °F 61% 29.94 in 10.0 mi SE 6.9 mph - N/A   Overcast
11:55 AM 77.0 °F - 59.0 °F 54% 29.93 in 10.0 mi SSW 8.1 mph - N/A   Overcast
12:15 PM 78.8 °F - 60.8 °F 54% 29.92 in 10.0 mi SSE 11.5 mph 18.4 mph N/A   Mostly Cloudy
12:35 PM 78.8 °F - 60.8 °F 54% 29.91 in 10.0 mi South 12.7 mph 19.6 mph N/A   Mostly Cloudy
12:55 PM 78.8 °F - 60.8 °F 54% 29.90 in 10.0 mi SSW 8.1 mph 17.3 mph N/A   Scattered Clouds
1:15 PM 80.6 °F 81.5 °F 60.8 °F 51% 29.90 in 10.0 mi SSE 15.0 mph 20.7 mph N/A   Mostly Cloudy
1:35 PM 80.6 °F 81.5 °F 60.8 °F 51% 29.89 in 10.0 mi South 15.0 mph 21.9 mph N/A   Scattered Clouds
1:55 PM 82.4 °F 82.9 °F 60.8 °F 48% 29.88 in 10.0 mi South 12.7 mph 23.0 mph N/A   Scattered Clouds
2:15 PM 82.4 °F 82.9 °F 60.8 °F 48% 29.88 in 10.0 mi South 16.1 mph 21.9 mph N/A   Clear
2:35 PM 82.4 °F 82.9 °F 60.8 °F 48% 29.87 in 10.0 mi South 12.7 mph 21.9 mph N/A   Clear
2:55 PM 82.4 °F 82.9 °F 60.8 °F 48% 29.87 in 10.0 mi South 15.0 mph 21.9 mph N/A   Scattered Clouds
3:15 PM 84.2 °F 84.4 °F 60.8 °F 45% 29.86 in 10.0 mi South 18.4 mph 26.5 mph N/A   Scattered Clouds
3:35 PM 84.2 °F 84.4 °F 60.8 °F 45% 29.84 in 10.0 mi South 19.6 mph 24.2 mph N/A   Clear
3:55 PM 82.4 °F 82.9 °F 60.8 °F 48% 29.84 in 10.0 mi South 16.1 mph 23.0 mph N/A   Scattered Clouds
4:15 PM 82.4 °F 82.5 °F 59.0 °F 45% 29.81 in 10.0 mi South 20.7 mph 26.5 mph N/A   Scattered Clouds
4:35 PM 80.6 °F 81.1 °F 59.0 °F 48% 29.81 in 10.0 mi South 12.7 mph - N/A   Scattered Clouds
4:55 PM 80.6 °F 81.5 °F 60.8 °F 51% 29.80 in 10.0 mi South 8.1 mph - N/A   Scattered Clouds
5:15 PM 80.6 °F 81.8 °F 62.6 °F 54% 29.79 in 10.0 mi SSE 13.8 mph - N/A   Scattered Clouds
5:35 PM 80.6 °F 81.8 °F 62.6 °F 54% 29.79 in 10.0 mi SE 13.8 mph - N/A Thunderstorm Scattered Clouds
5:55 PM 78.8 °F - 62.6 °F 57% 29.80 in 10.0 mi SE 15.0 mph 20.7 mph N/A   Overcast
6:15 PM 73.4 °F - 59.0 °F 61% 29.79 in 10.0 mi East 9.2 mph - N/A   Mostly Cloudy
6:35 PM 71.6 °F - 59.0 °F 64% 29.79 in 10.0 mi East 8.1 mph - N/A   Mostly Cloudy
6:55 PM 69.8 °F - 60.8 °F 73% 29.80 in 10.0 mi East 11.5 mph - N/A Thunderstorm Overcast
7:15 PM 68.0 °F - 60.8 °F 78% 29.80 in 10.0 mi East 16.1 mph 23.0 mph N/A   Overcast
7:35 PM 68.0 °F - 59.0 °F 73% 29.79 in 10.0 mi East 11.5 mph - N/A Thunderstorm Overcast
7:55 PM 66.2 °F - 57.2 °F 73% 29.81 in 10.0 mi East 26.5 mph 33.4 mph N/A   Scattered Clouds
8:15 PM 64.4 °F - 57.2 °F 77% 29.81 in 10.0 mi ESE 21.9 mph 26.5 mph N/A Thunderstorm Scattered Clouds
8:35 PM 62.6 °F - 55.4 °F 77% 29.81 in 10.0 mi East 19.6 mph 26.5 mph N/A   Clear
8:55 PM 62.6 °F - 59.0 °F 88% 29.83 in 10.0 mi ESE 15.0 mph 21.9 mph N/A   Clear
9:15 PM 62.6 °F - 57.2 °F 82% 29.84 in 10.0 mi East 16.1 mph 20.7 mph N/A   Clear
9:35 PM 60.8 °F - 59.0 °F 94% 29.84 in 10.0 mi East 15.0 mph - N/A   Clear
9:55 PM 62.6 °F - 59.0 °F 88% 29.84 in 10.0 mi East 11.5 mph - N/A   Clear
10:15 PM 60.8 °F - 59.0 °F 94% 29.86 in 10.0 mi East 13.8 mph 18.4 mph N/A   Clear
10:35 PM 60.8 °F - 59.0 °F 94% 29.87 in 10.0 mi East 12.7 mph - N/A   Clear
11:55 PM 62.6 °F - 59.0 °F 88% 29.86 in 10.0 mi SE 13.8 mph - N/A   Overcast